STARLINK-2548 (48285 NORAD) Tracking and Keplerian Element Data

This shows tracking and keplerian element data for the satellite.

Feedback or suggestion? Click here.




ElementValue
Catalog48285
NameSTARLINK-2548
Epoch Orbit1510
Epoch Day210.91668981
Epoch Year2021
RAAN80.4686
Inclination53.0394
Eccentricity0.0001496
Argument of Perigee82.2247
Mean Anonmoly337.6531
Mean Motion15.06442324
Decay Rate-0.0004508
L11 48285U 21036K 21210.91668981 -.00045080 00000-0 -30232-2 0 9994
L22 48285 53.0394 80.4686 0001496 82.2247 337.6531 15.06442324 15106

Live tracking and technical data element details for STARLINK-2548 (NORAD 48285). STARLINK-2548 can be tracked NOW for your location showing map with azimuth and elevation plus other details from your city location.

Track the satellite on the map from your city or location and see movement details for azimuth, elevation, latitude, longitude, range, height, and movement on the map or in text.







IsCatalogInMostPopularTable: catalog: 48285, numindb: 34
Update: records affected: 1



GetName: 48285 STARLINK-2548

Hit Count: updated at: Sat, 31 Jul 2021 14:50:51 GMT